NORTHERN NASSAU  -  Areal Flood Advisory Areal Flood Advisory     Special Weather Statement Special Weather Statement        NORTHERN QUEENS  -  Areal Flood Advisory Areal Flood Advisory        SOUTHERN NASSAU  -  Areal Flood Advisory Areal Flood Advisory     Special Weather Statement Special Weather Statement        SOUTHERN QUEENS  -  Areal Flood Advisory Areal Flood Advisory        NORTHEAST SUFFOLK  -  Special Weather Statement Special Weather Statement        NORTHWEST SUFFOLK  -  Special Weather Statement Special Weather Statement        SOUTHEAST SUFFOLK  -  Special Weather Statement Special Weather Statement        SOUTHWEST SUFFOLK  -  Special Weather Statement Special Weather Statement      

Active alerts

Northern Queens
  Details for Northern Queens Areal Flood Advisory
Southern Queens
  Details for Southern Queens Areal Flood Advisory
Northern Nassau
  Details for Northern Nassau Areal Flood Advisory  +1 additional alert
Southern Nassau
  Details for Southern Nassau Areal Flood Advisory  +1 additional alert
Northwest Suffolk
  Details for Northwest Suffolk Special Weather Statement
Southwest Suffolk
  Details for Southwest Suffolk Special Weather Statement
Northeast Suffolk
  Details for Northeast Suffolk Special Weather Statement
Southeast Suffolk
  Details for Southeast Suffolk Special Weather Statement


WXM80 ListenWXM80 Stop

You find our weather info also at:

UK Metoffice

WeatherCloud

Weather Underground

Northeastern Weather Network

AWEKAS

Citizen Weather Observer Program (CWOP)

HAMweather, WeatherForYou, PWS Weather


Weather Underground History page Text

Daily Summary for June 19, 2017 Units:  Metric    English   Both
« Previous Day
Next Day »
Daily Weekly Monthly Yearly Custom
  High: Low: Average:
Temperature: -17.8 °C 20.7 °C 24.8 °C
Dew Point: -17.8 °C 20.1 °C 22.3 °C
Humidity: Humidity % 70 % 86 %
Wind Speed: 0 km/h 0 km/h 3.5 km/h
Wind Gust: 0 km/h - -
Wind:- - South
Pressure: 0 hPa 1006.3 hPa -
Precipitation: 24.64 mm    
Historical Graphs
 
 
Tabular Data for June 19, 2017
Time Temperature Dew Point Pressure Wind Wind Speed Wind Gust Humidity Rainfall Rate (Hourly)
-17.8 °C -17.8 °C 0 hPa Calm     Humidity % 0 mm
00:00 23.1 °C 21.9 °C 1008.7 hPa South 1.9 km/h 11.1 km/h 93 % 0 mm
00:05 23.1 °C 21.9 °C 1008.7 hPa SSE 3.2 km/h 7.4 km/h 93 % 0 mm
00:10 23.1 °C 21.9 °C 1008.7 hPa SE 2.9 km/h 6.4 km/h 93 % 0 mm
00:15 23.1 °C 21.9 °C 1008.7 hPa South 1.1 km/h 3.2 km/h 93 % 0 mm
00:20 23.1 °C 21.9 °C 1008.7 hPa SSE 4.8 km/h 13 km/h 93 % 0 mm
00:25 23.1 °C 21.9 °C 1008.7 hPa SSE 1.1 km/h 5.6 km/h 93 % 0 mm
00:26 23.1 °C 21.9 °C 1008.7 hPa SSW 4.2 km/h 11.3 km/h 93 % 0 mm
00:31 23.1 °C 21.9 °C 1008.7 hPa SE 2.4 km/h 5.6 km/h 93 % 0 mm
00:36 23 °C 21.8 °C 1008.7 hPa South 2.4 km/h 5.6 km/h 93 % 0 mm
00:41 23 °C 21.8 °C 1008.7 hPa SSE 2.6 km/h 9.3 km/h 93 % 0 mm
00:46 22.9 °C 21.8 °C 1008.7 hPa SSE 1.6 km/h 9.3 km/h 93 % 0 mm
00:51 22.9 °C 21.8 °C 1008.7 hPa SE 3.9 km/h 7.4 km/h 93 % 0 mm
00:56 22.9 °C 21.7 °C 1008.7 hPa SSW 3.2 km/h 6.4 km/h 93 % 0 mm
01:06 22.8 °C 21.7 °C 1008.7 hPa South 1.8 km/h 5.6 km/h 93 % 0 mm
01:11 22.8 °C 21.8 °C 1008.4 hPa SSW 2.7 km/h 7.4 km/h 94 % 0 mm
01:16 22.8 °C 21.8 °C 1008.4 hPa SSW 2.4 km/h 5.6 km/h 94 % 0 mm
01:21 22.8 °C 21.8 °C 1008.4 hPa SSE 0.8 km/h 5.6 km/h 94 % 0 mm
01:26 22.8 °C 21.8 °C 1008.4 hPa SSW 2.4 km/h 9.3 km/h 94 % 0 mm
01:31 22.8 °C 21.8 °C 1008.4 hPa South 1.3 km/h 5.6 km/h 94 % 0 mm
01:36 22.8 °C 21.8 °C 1008.4 hPa SSW 2.3 km/h 5.6 km/h 94 % 0 mm
01:41 22.8 °C 21.8 °C 1008.4 hPa SW 1.8 km/h 7.4 km/h 94 % 0 mm
01:46 22.8 °C 21.8 °C 1008.4 hPa South 2.4 km/h 5.6 km/h 94 % 0 mm
01:51 22.7 °C 21.7 °C 1008.4 hPa SSW 2.4 km/h 5.6 km/h 94 % 0 mm
01:56 22.7 °C 21.7 °C 1008.4 hPa SSW 1.4 km/h 7.4 km/h 94 % 0 mm
02:01 22.7 °C 21.7 °C 1008.4 hPa South 2.6 km/h 7.4 km/h 94 % 0 mm
02:06 22.7 °C 21.7 °C 1008 hPa South 1.9 km/h 5.6 km/h 94 % 0 mm
02:11 22.7 °C 21.7 °C 1008 hPa South 2.7 km/h 7.4 km/h 94 % 0 mm
02:16 22.7 °C 21.7 °C 1008.4 hPa SE 3.5 km/h 14.5 km/h 94 % 0 mm
02:21 22.7 °C 21.7 °C 1008 hPa SSE 1.6 km/h 7.4 km/h 94 % 0 mm
02:26 22.7 °C 21.7 °C 1008 hPa South 1.8 km/h 11.1 km/h 94 % 0 mm
02:31 22.7 °C 21.7 °C 1008.4 hPa SE 2.3 km/h 5.6 km/h 94 % 0 mm
02:36 22.7 °C 21.7 °C 1008.4 hPa SSW 2.7 km/h 9.7 km/h 94 % 0 mm
02:41 22.7 °C 21.7 °C 1008.4 hPa SE 4.7 km/h 7.4 km/h 94 % 0 mm
02:46 22.7 °C 21.7 °C 1008.4 hPa SSE 2.6 km/h 7.4 km/h 94 % 0 mm
02:51 22.7 °C 21.7 °C 1008.4 hPa SE 1.6 km/h 3.7 km/h 94 % 0 mm
02:56 22.7 °C 21.7 °C 1008.4 hPa SE 2.3 km/h 6.4 km/h 94 % 0 mm
03:02 22.7 °C 21.7 °C 1008.4 hPa SSE 0.8 km/h 5.6 km/h 94 % 0 mm
03:07 22.7 °C 21.7 °C 1008.4 hPa South 1.1 km/h 5.6 km/h 94 % 0 mm
03:12 22.8 °C 21.8 °C 1008.4 hPa SSW 2.1 km/h 7.4 km/h 94 % 0 mm
03:17 22.8 °C 21.8 °C 1008.4 hPa SSW 1.6 km/h 5.6 km/h 94 % 0 mm
03:22 22.8 °C 21.8 °C 1008.4 hPa South 1.8 km/h 5.6 km/h 94 % 0 mm
03:27 22.8 °C 21.8 °C 1008 hPa SSW 1.8 km/h 5.6 km/h 94 % 0 mm
03:32 22.7 °C 21.7 °C 1008.4 hPa SSE 3.9 km/h 7.4 km/h 94 % 0 mm
03:37 22.7 °C 21.7 °C 1008.4 hPa South 1 km/h 3.7 km/h 94 % 0 mm
03:42 22.7 °C 21.7 °C 1008.4 hPa SSE 1.6 km/h 7.4 km/h 94 % 0 mm
03:47 22.7 °C 21.7 °C 1008.4 hPa SE 2.1 km/h 9.3 km/h 94 % 0 mm
03:52 22.7 °C 21.7 °C 1008.4 hPa WSW 2.7 km/h 6.4 km/h 94 % 0 mm
03:57 22.7 °C 21.7 °C 1008.4 hPa SSE 4.5 km/h 9.3 km/h 94 % 0 mm
04:02 22.6 °C 21.6 °C 1008.4 hPa SSE 2.4 km/h 9.3 km/h 94 % 0 mm
04:07 22.6 °C 21.6 °C 1008.4 hPa South 2.9 km/h 11.1 km/h 94 % 0 mm
04:12 22.6 °C 21.6 °C 1008.4 hPa South 2.3 km/h 4.8 km/h 94 % 0 mm
04:17 22.6 °C 21.6 °C 1008.4 hPa South 0.5 km/h 5.6 km/h 94 % 0 mm
04:22 22.6 °C 21.6 °C 1008.4 hPa SSE 1.4 km/h 5.6 km/h 94 % 0 mm
04:27 22.6 °C 21.6 °C 1008.4 hPa South 0.3 km/h 3.7 km/h 94 % 0 mm
04:32 22.5 °C 21.5 °C 1008.4 hPa SSW 0.5 km/h 1.9 km/h 94 % 0 mm
04:37 22.5 °C 21.5 °C 1008.7 hPa WSW 0.8 km/h 5.6 km/h 94 % 0 mm
04:42 22.5 °C 21.5 °C 1008.4 hPa SE 2.4 km/h 5.6 km/h 94 % 0 mm
04:47 22.4 °C 21.4 °C 1008.7 hPa SSE 2.9 km/h 7.4 km/h 94 % 0 mm
04:52 22.4 °C 21.4 °C 1008.7 hPa SSW 0.3 km/h 1.9 km/h 94 % 0 mm
04:57 22.4 °C 21.4 °C 1008.7 hPa South 2.4 km/h 5.6 km/h 94 % 0 mm
05:02 22.4 °C 21.4 °C 1008.7 hPa SSW 1 km/h 3.7 km/h 94 % 0 mm
05:07 22.4 °C 21.4 °C 1008.7 hPa SSE 2.7 km/h 5.6 km/h 94 % 0 mm
05:12 22.4 °C 21.4 °C 1008.7 hPa SSW 2.3 km/h 6.4 km/h 94 % 0 mm
05:17 22.4 °C 21.6 °C 1008.7 hPa South 1.6 km/h 3.7 km/h 95 % 0 mm
05:22 22.4 °C 21.6 °C 1008.7 hPa SSE 2.9 km/h 5.6 km/h 95 % 0 mm
05:27 22.4 °C 21.6 °C 1008.7 hPa South 2.1 km/h 4.8 km/h 95 % 0 mm
05:32 22.4 °C 21.6 °C 1008.7 hPa South 1.3 km/h 6.4 km/h 95 % 0 mm
05:37 22.3 °C 21.5 °C 1009 hPa South 1.1 km/h 5.6 km/h 95 % 0 mm
05:42 22.3 °C 21.5 °C 1009 hPa SSW 2.6 km/h 5.6 km/h 95 % 0 mm
05:47 22.3 °C 21.5 °C 1009 hPa South 2.1 km/h 5.6 km/h 95 % 0 mm
05:53 22.4 °C 21.6 °C 1009 hPa South 0.3 km/h 5.6 km/h 95 % 0 mm
05:57 22.4 °C 21.6 °C 1009 hPa SSW 3.4 km/h 4.8 km/h 95 % 0 mm
06:02 22.4 °C 21.6 °C 1009 hPa ESE 2.9 km/h 7.4 km/h 95 % 0 mm
06:08 22.4 °C 21.6 °C 1009 hPa SE 0.6 km/h 3.7 km/h 95 % 0 mm
06:13 22.4 °C 21.6 °C 1009 hPa South 1.3 km/h 3.7 km/h 95 % 0 mm
06:18 22.5 °C 21.7 °C 1009 hPa WSW 1.1 km/h 5.6 km/h 95 % 0 mm
06:23 22.6 °C 21.7 °C 1009 hPa SE 0.6 km/h 5.6 km/h 95 % 0 mm
06:28 22.6 °C 21.8 °C 1009 hPa SSW 1.6 km/h 7.4 km/h 95 % 0 mm
06:33 22.7 °C 21.9 °C 1009 hPa SE 1.3 km/h 3.7 km/h 95 % 0 mm
06:38 22.8 °C 21.9 °C 1009 hPa SSW 3.1 km/h 8 km/h 95 % 0 mm
06:43 22.9 °C 22.1 °C 1009 hPa SSW 1.6 km/h 6.4 km/h 95 % 0 mm
06:48 23 °C 22 °C 1009 hPa South 4.3 km/h 6.4 km/h 94 % 0 mm
06:53 23.1 °C 22.1 °C 1009 hPa SSW 1.6 km/h 5.6 km/h 94 % 0 mm
06:58 23.3 °C 22.3 °C 1009 hPa SW 2.3 km/h 5.6 km/h 94 % 0 mm
07:03 23.4 °C 22.4 °C 1009 hPa South 2.4 km/h 7.4 km/h 94 % 0 mm
07:08 23.6 °C 22.4 °C 1009 hPa SSW 3.9 km/h 9.3 km/h 93 % 0 mm
07:13 23.8 °C 22.4 °C 1009.4 hPa SSW 2.1 km/h 9.3 km/h 92 % 0 mm
07:18 23.9 °C 22.5 °C 1009.4 hPa ESE 3.2 km/h 4.8 km/h 92 % 0 mm
07:23 24.1 °C 22.5 °C 1009 hPa SSW 3.5 km/h 7.4 km/h 91 % 0 mm
07:28 24.2 °C 22.6 °C 1009 hPa South 1.9 km/h 5.6 km/h 91 % 0 mm
07:33 24.3 °C 22.6 °C 1009 hPa South 4.2 km/h 7.4 km/h 90 % 0 mm
07:38 24.3 °C 22.6 °C 1009 hPa South 1.3 km/h 5.6 km/h 90 % 0 mm
07:43 24.4 °C 22.7 °C 1009.4 hPa South 3.9 km/h 9.3 km/h 90 % 0 mm
07:48 24.4 °C 22.7 °C 1009.4 hPa ESE 1.8 km/h 12.9 km/h 90 % 0 mm
07:53 24.4 °C 22.7 °C 1009.4 hPa SSE 1.3 km/h 5.6 km/h 90 % 0 mm
07:58 24.5 °C 22.8 °C 1009.4 hPa SSW 4.2 km/h 7.4 km/h 90 % 0 mm
08:03 24.6 °C 22.8 °C 1009.4 hPa SSE 4.3 km/h 8 km/h 90 % 0 mm
08:08 24.7 °C 22.9 °C 1009.4 hPa South 2.6 km/h 5.6 km/h 90 % 0 mm
08:13 24.7 °C 22.9 °C 1009.4 hPa South 5.3 km/h 5.6 km/h 90 % 0 mm
08:19 24.8 °C 23.1 °C 1009 hPa SSW 3.1 km/h 9.3 km/h 90 % 0 mm
08:24 25 °C 23.1 °C 1009 hPa SSE 5.6 km/h 11.3 km/h 89 % 0 mm
08:29 25.1 °C 23.1 °C 1009 hPa SE 3.7 km/h 11.1 km/h 89 % 0 mm
08:34 25.2 °C 23.1 °C 1009 hPa South 3.4 km/h 9.3 km/h 88 % 0 mm
08:39 25.3 °C 23.4 °C 1009.4 hPa SSW 3.2 km/h 9.3 km/h 89 % 0 mm
08:44 25.4 °C 23.1 °C 1009.4 hPa South 5 km/h 11.1 km/h 87 % 0 mm
08:49 25.6 °C 23.2 °C 1009.4 hPa SSE 4.7 km/h 9.3 km/h 87 % 0 mm
08:54 25.6 °C 23.1 °C 1009 hPa South 2.9 km/h 7.4 km/h 86 % 0 mm
08:59 25.7 °C 23.3 °C 1009.4 hPa South 3.2 km/h 5.6 km/h 87 % 0 mm
09:04 25.7 °C 23.2 °C 1009.4 hPa SW 2.4 km/h 8 km/h 86 % 0 mm
09:09 25.7 °C 23.2 °C 1009.4 hPa SSW 4.5 km/h 6.4 km/h 86 % 0 mm
09:14 25.8 °C 23.3 °C 1009.4 hPa SSE 3.2 km/h 14.8 km/h 86 % 0 mm
09:19 25.7 °C 23.2 °C 1009.4 hPa SSE 4.3 km/h 7.4 km/h 86 % 0 mm
09:24 25.8 °C 23.3 °C 1009.7 hPa SSW 2.7 km/h 13 km/h 86 % 0 mm
09:29 25.8 °C 23.3 °C 1009.7 hPa SSW 1.3 km/h 7.4 km/h 86 % 0 mm
09:34 25.9 °C 23.4 °C 1009.7 hPa SE 3.1 km/h 11.1 km/h 86 % 0 mm
09:35 25.9 °C 23.4 °C 1009.4 hPa SE 2.7 km/h 9.3 km/h 86 % 0 mm
09:40 26.2 °C 23.6 °C 1009.7 hPa SW 7.9 km/h 13 km/h 86 % 0 mm
09:45 26.3 °C 23.6 °C 1009.4 hPa SW 2.6 km/h 11.1 km/h 85 % 0 mm
09:50 26.6 °C 23.8 °C 1009.7 hPa WSW 0.3 km/h 4.8 km/h 85 % 0 mm
09:56 26.9 °C 23.9 °C 1009.7 hPa SSW 4.8 km/h 20.9 km/h 84 % 0 mm
10:01 27.2 °C 24.1 °C 1009.7 hPa SSW 6 km/h 6.4 km/h 83 % 0 mm
10:05 27.4 °C 23.8 °C 1009.7 hPa SSE 1.8 km/h 11.1 km/h 81 % 0 mm
10:11 27.6 °C 24 °C 1009.7 hPa SE 3.2 km/h 5.6 km/h 81 % 0 mm
10:16 27.6 °C 23.8 °C 1009.7 hPa SSW 2.6 km/h 6.4 km/h 80 % 0 mm
10:21 27.7 °C 24.1 °C 1009.7 hPa ESE 1.4 km/h 6.4 km/h 81 % 0 mm
10:26 27.6 °C 23.8 °C 1009.7 hPa SSE 3.2 km/h 14.5 km/h 80 % 0 mm
10:31 27.7 °C 24.1 °C 1009.4 hPa SSE 1.6 km/h 12.9 km/h 81 % 0 mm
10:36 27.8 °C 24 °C 1009.4 hPa SSE 1.6 km/h 11.3 km/h 80 % 0 mm
10:41 28 °C 24 °C 1009.4 hPa South 3.2 km/h 14.5 km/h 79 % 0 mm
10:46 28.2 °C 24.3 °C 1009.7 hPa South 4.8 km/h 14.5 km/h 79 % 0 mm
10:51 28.4 °C 24.2 °C 1009.7 hPa South 3.2 km/h 16.1 km/h 78 % 0 mm
10:55 28.6 °C 23.9 °C 1009.4 hPa SE 9.2 km/h 20.4 km/h 76 % 0 mm
11:01 28.7 °C 24.2 °C 1009 hPa South 4.2 km/h 14.8 km/h 77 % 0 mm
11:06 28.8 °C 24.4 °C 1009 hPa SW 5.8 km/h 11.3 km/h 77 % 0 mm
11:11 29.1 °C 24.6 °C 1009.4 hPa South 1.4 km/h 7.4 km/h 77 % 0 mm
11:16 29.1 °C 24.2 °C 1009 hPa SSE 4.2 km/h 11.1 km/h 75 % 0 mm
11:21 29 °C 24.3 °C 1009 hPa SSE 3.5 km/h 7.4 km/h 76 % 0 mm
11:26 29.2 °C 24.3 °C 1009 hPa SE 4.8 km/h 11.3 km/h 75 % 0 mm
11:31 29.2 °C 24.1 °C 1008.7 hPa SSE 6.6 km/h 16.7 km/h 74 % 0 mm
11:36 29.2 °C 24.1 °C 1008.7 hPa SSE 10.5 km/h 20.4 km/h 74 % 0 mm
11:41 29.1 °C 23.9 °C 1008.7 hPa South 6 km/h 13 km/h 74 % 0 mm
11:44 29.1 °C 24.4 °C 1009 hPa South 5.8 km/h 11.1 km/h 76 % 0 mm
11:49 29.4 °C 24.9 °C 1009 hPa WNW 1.6 km/h 7.4 km/h 77 % 0 mm
11:54 29.7 °C 24.6 °C 1009 hPa SSW 8.9 km/h 12.9 km/h 74 % 0 mm
11:59 29.9 °C 24.5 °C 1008.7 hPa SSE 3.7 km/h 13 km/h 73 % 0 mm
12:04 30.1 °C 24.4 °C 1008.7 hPa South 3.9 km/h 9.3 km/h 72 % 0 mm
12:09 29.9 °C 24.3 °C 1008.4 hPa South 2.9 km/h 7.4 km/h 72 % 0 mm
12:14 29.9 °C 24.3 °C 1008.4 hPa South 4.8 km/h 16.7 km/h 72 % 0 mm
12:19 29.7 °C 24.4 °C 1008.4 hPa SSE 9.8 km/h 18.5 km/h 73 % 0 mm
12:24 29.5 °C 24.4 °C 1008 hPa SW 4 km/h 9.3 km/h 74 % 0 mm
12:29 29.6 °C 24.5 °C 1008 hPa SE 3.5 km/h 7.4 km/h 74 % 0 mm
12:34 29.7 °C 24.8 °C 1008.4 hPa SSW 4.3 km/h 11.1 km/h 75 % 0 mm
12:39 29.8 °C 24.4 °C 1008.4 hPa SSW 9.5 km/h 17.7 km/h 73 % 0 mm
12:44 29.8 °C 24.4 °C 1008.4 hPa SSE 11.1 km/h 14.8 km/h 73 % 0 mm
12:49 29.8 °C 24.2 °C 1008.4 hPa SSW 9 km/h 22.2 km/h 72 % 0 mm
12:54 29.8 °C 24 °C 1008.4 hPa SSE 9.2 km/h 9.3 km/h 71 % 0 mm
13:00 29.6 °C 24 °C 1008.4 hPa SE 3.4 km/h 18.5 km/h 72 % 0 mm
13:04 29.4 °C 24.1 °C 1008 hPa South 2.4 km/h 9.3 km/h 73 % 0 mm
13:10 29.2 °C 24.1 °C 1008.4 hPa South 5.3 km/h 12.9 km/h 74 % 0 mm
13:15 29.3 °C 24.6 °C 1008.4 hPa SE 2.7 km/h 8 km/h 76 % 0 mm
13:20 29.6 °C 24.7 °C 1008.4 hPa SSE 4.5 km/h 14.8 km/h 75 % 0 mm
13:25 29.7 °C 24.6 °C 1008 hPa SE 8.4 km/h 16.7 km/h 74 % 0 mm
13:30 29.8 °C 23.9 °C 1008 hPa South 6.4 km/h 11.1 km/h 71 % 0 mm
13:35 29.6 °C 23.7 °C 1008 hPa South 6.9 km/h 18.5 km/h 71 % 0 mm
13:40 29.4 °C 23.9 °C 1008 hPa SSW 7.7 km/h 13 km/h 72 % 0 mm
13:45 29.3 °C 23.7 °C 1008 hPa South 5.6 km/h 12.9 km/h 72 % 0 mm
13:50 29.1 °C 23.7 °C 1008 hPa SSW 5.6 km/h 14.8 km/h 73 % 0 mm
13:55 28.9 °C 23.8 °C 1008 hPa SSE 4.5 km/h 8 km/h 74 % 0 mm
14:00 28.8 °C 23.7 °C 1008 hPa SSE 7.7 km/h 14.8 km/h 74 % 0 mm
14:05 29 °C 24.1 °C 1007.7 hPa South 8.9 km/h 13 km/h 75 % 0 mm
14:10 29.2 °C 24.1 °C 1007.3 hPa East 9.5 km/h 14.8 km/h 74 % 0 mm
14:15 29.4 °C 24.1 °C 1007.3 hPa South 6 km/h 18.5 km/h 73 % 0 mm
14:20 29.6 °C 24.3 °C 1007.3 hPa West 4.5 km/h 11.1 km/h 73 % 0 mm
14:25 29.9 °C 24.5 °C 1007.3 hPa South 8.2 km/h 14.5 km/h 73 % 0 mm
14:30 30.1 °C 24.4 °C 1007.3 hPa South 9.5 km/h 31.5 km/h 72 % 0 mm
14:36 30.1 °C 24.1 °C 1007 hPa South 8 km/h 16.1 km/h 70 % 0 mm
14:41 30.2 °C 24.1 °C 1007 hPa South 8 km/h 22.5 km/h 70 % 0 mm
14:46 30.1 °C 24.1 °C 1007 hPa South 7.6 km/h 13 km/h 70 % 0 mm
14:51 30.1 °C 24 °C 1006.7 hPa South 4.5 km/h 9.7 km/h 70 % 0 mm
14:56 30.1 °C 24 °C 1006.7 hPa SSW 10.8 km/h 14.8 km/h 70 % 0 mm
15:01 29.9 °C 23.9 °C 1006.7 hPa SSW 7.2 km/h 13 km/h 70 % 0 mm
15:06 29.9 °C 24.3 °C 1006.7 hPa SSW 11.6 km/h 18.5 km/h 72 % 0 mm
15:11 29.9 °C 23.8 °C 1006.7 hPa WSW 11.9 km/h 20.4 km/h 70 % 0 mm
15:17 29.8 °C 23.7 °C 1006.3 hPa SSE 5.5 km/h 13 km/h 70 % 0 mm
15:22 29.7 °C 23.9 °C 1006.7 hPa SSW 14.5 km/h 24.1 km/h 71 % 0 mm
15:27 29.7 °C 24.1 °C 1006.7 hPa SSW 6.3 km/h 13 km/h 72 % 0 mm
15:32 29.6 °C 23.8 °C 1006.7 hPa South 12.2 km/h 20.4 km/h 71 % 0 mm
15:37 29.5 °C 23.7 °C 1006.7 hPa SSW 7.7 km/h 24.1 km/h 71 % 0 mm
15:42 29.4 °C 23.9 °C 1006.7 hPa South 8.2 km/h 20.4 km/h 72 % 0 mm
15:47 29.4 °C 23.8 °C 1007 hPa South 6.6 km/h 16.7 km/h 72 % 0 mm
15:52 29.3 °C 23.5 °C 1006.7 hPa South 6.8 km/h 13 km/h 71 % 0 mm
15:54 29.3 °C 24 °C 1006.7 hPa South 5.8 km/h 13 km/h 73 % 0 mm
15:59 29.3 °C 23.8 °C 1007 hPa South 12.2 km/h 20.4 km/h 72 % 0 mm
16:04 29.3 °C 23.5 °C 1006.7 hPa South 8.4 km/h 20.4 km/h 71 % 0 mm
16:09 29.3 °C 23.5 °C 1007 hPa SSW 7.1 km/h 14.8 km/h 71 % 0 mm
16:14 29.2 °C 23.4 °C 1006.7 hPa South 11.1 km/h 24.1 km/h 71 % 0 mm
16:19 29.1 °C 23.3 °C 1006.7 hPa SSW 8.4 km/h 20.4 km/h 71 % 0 mm
16:24 28.9 °C 23.3 °C 1006.7 hPa South 4.5 km/h 11.1 km/h 72 % 0 mm
16:30 28.9 °C 23.6 °C 1006.7 hPa WSW 4.3 km/h 18.5 km/h 73 % 0 mm
16:35 28.8 °C 23.4 °C 1006.3 hPa SSW 5 km/h 16.7 km/h 73 % 0 mm
16:40 28.8 °C 23.4 °C 1006.7 hPa SSE 6.6 km/h 22.2 km/h 73 % 0 mm
16:45 28.8 °C 23.4 °C 1006.3 hPa SSW 5.8 km/h 14.8 km/h 73 % 0 mm
16:50 28.7 °C 23.6 °C 1006.7 hPa South 13 km/h 25.9 km/h 74 % 0 mm
16:55 28.6 °C 23.4 °C 1006.7 hPa SW 5.6 km/h 18.5 km/h 74 % 0 mm
17:00 28.4 °C 23.3 °C 1006.3 hPa South 10.1 km/h 18.5 km/h 74 % 0 mm
17:05 28.1 °C 23 °C 1006.3 hPa ESE 8.7 km/h 16.7 km/h 74 % 0 mm
17:10 27.8 °C 23.2 °C 1006.3 hPa SSE 6.4 km/h 14.8 km/h 76 % 0 mm
17:15 27.6 °C 23.2 °C 1006.3 hPa SSW 7.6 km/h 13 km/h 77 % 0 mm
17:20 27.3 °C 22.9 °C 1006.3 hPa South 9.8 km/h 22.2 km/h 77 % 0 mm
17:25 27 °C 22.8 °C 1006.7 hPa South 9 km/h 18.5 km/h 78 % 0 mm
17:30 26.8 °C 22.8 °C 1006.7 hPa SW 5.1 km/h 14.5 km/h 79 % 0 mm
17:35 26.4 °C 22.7 °C 1006.7 hPa SW 7.1 km/h 13 km/h 80 % 0 mm
17:40 26.2 °C 22.4 °C 1007 hPa SW 5.5 km/h 17.7 km/h 80 % 0 mm
17:45 26 °C 22.5 °C 1008.4 hPa WSW 13.5 km/h 27.8 km/h 81 % 0 mm
17:50 25.8 °C 22.4 °C 1008 hPa WNW 5.6 km/h 18.5 km/h 82 % 0 mm
17:55 25.6 °C 22.3 °C 1008 hPa SSW 5.8 km/h 11.1 km/h 82 % 0 mm
18:00 25.4 °C 22.3 °C 1008 hPa SW 1 km/h 5.6 km/h 83 % 0 mm
18:05 25.3 °C 22.2 °C 1008 hPa SSW 2.3 km/h 5.6 km/h 83 % 0 mm
18:10 25.2 °C 22.3 °C 1008 hPa SE 0.2 km/h 5.6 km/h 84 % 0 mm
18:15 25.2 °C 22.3 °C 1008 hPa SE 1.8 km/h 5.6 km/h 84 % 0 mm
18:20 25.1 °C 22.3 °C 1008.7 hPa WSW 6.1 km/h 8 km/h 85 % 0 mm
18:25 25 °C 22.7 °C 1009 hPa West 4.7 km/h 9.7 km/h 87 % 2.54 mm
18:30 24.8 °C 22.4 °C 1008 hPa WSW 0.6 km/h 1.9 km/h 87 % 6.86 mm
18:36 24.6 °C 22.3 °C 1008.4 hPa Calm   1.6 km/h 87 % 10.16 mm
18:41 24.3 °C 22.2 °C 1008.4 hPa SSE 1.9 km/h 5.6 km/h 88 % 12.19 mm
18:46 24 °C 22.1 °C 1008.7 hPa SSE 1.6 km/h 4.8 km/h 89 % 0 mm
18:56 23.7 °C 22.2 °C 1008 hPa Calm     91 % 0 mm
19:01 23.6 °C 22.1 °C 1008.7 hPa West 0.3 km/h 1.9 km/h 91 % 12.7 mm
19:06 23.5 °C 22.1 °C 1009.4 hPa SW 2.4 km/h 6.4 km/h 92 % 12.95 mm
19:11 23.4 °C 22 °C 1009 hPa SE 0.5 km/h 5.6 km/h 92 % 14.22 mm
19:16 23.2 °C 21.8 °C 1009.4 hPa WSW 2.1 km/h 5.6 km/h 92 % 15.49 mm
19:21 23.1 °C 21.9 °C 1009 hPa Calm     93 % 17.02 mm
19:31 23 °C 21.8 °C 1009.4 hPa WSW 1.1 km/h 3.7 km/h 93 % 10.16 mm
19:32 23 °C 21.8 °C 1009.4 hPa WSW 5 km/h 8 km/h 93 % 10.16 mm
19:37 22.9 °C 21.7 °C 1009.4 hPa WSW 0.6 km/h 3.2 km/h 93 % 6.6 mm
19:42 22.8 °C 21.7 °C 1009.4 hPa Calm   1.9 km/h 93 % 5.84 mm
19:47 22.8 °C 21.6 °C 1009 hPa WSW 0.2 km/h 1.9 km/h 93 % 6.1 mm
19:52 22.8 °C 21.8 °C 1009 hPa WSW 3.9 km/h 6.4 km/h 94 % 6.35 mm
19:57 22.7 °C 21.7 °C 1009.4 hPa Calm     94 % 6.35 mm
20:02 22.6 °C 21.6 °C 1009 hPa WNW 2.7 km/h 9.3 km/h 94 % 6.86 mm
20:07 22.5 °C 21.3 °C 1009.4 hPa West 3.9 km/h 5.6 km/h 93 % 7.11 mm
20:12 22.4 °C 21.3 °C 1009.4 hPa Calm     93 % 5.84 mm
20:17 22.3 °C 21.2 °C 1009.4 hPa Calm   3.7 km/h 93 % 4.57 mm
20:22 22.3 °C 21.3 °C 1009.4 hPa Calm   1.9 km/h 94 % 3.81 mm
20:27 22.3 °C 21.3 °C 1009.7 hPa Calm   1.9 km/h 94 % 3.56 mm
20:32 22.2 °C 21.2 °C 1009.7 hPa West 0.8 km/h 3.7 km/h 94 % 3.56 mm
20:37 22.2 °C 21.4 °C 1009.7 hPa Calm   1.9 km/h 95 % 3.81 mm
20:42 22.2 °C 21.3 °C 1009.7 hPa WSW 1.4 km/h 4.8 km/h 95 % 3.81 mm
20:47 22.1 °C 21.3 °C 1009.4 hPa WSW 1.4 km/h 3.7 km/h 95 % 3.56 mm
20:52 22.1 °C 21.2 °C 1009 hPa WSW 0.6 km/h 3.7 km/h 95 % 3.56 mm
20:57 22 °C 21.2 °C 1009 hPa South 0.2 km/h 1.9 km/h 95 % 3.56 mm
21:02 21.9 °C 21.1 °C 1009 hPa Calm     95 % 3.3 mm
21:07 21.8 °C 21 °C 1009 hPa South 0.5 km/h 1.9 km/h 95 % 3.05 mm
21:13 21.7 °C 20.9 °C 1009.4 hPa SSW 0.5 km/h 3.7 km/h 95 % 2.79 mm
21:14 21.7 °C 20.9 °C 1009.4 hPa Calm     95 % 3.05 mm
21:19 21.6 °C 20.8 °C 1009.7 hPa SW 0.5 km/h 1.9 km/h 95 % 2.54 mm
21:24 21.6 °C 20.7 °C 1009.7 hPa Calm   1.9 km/h 95 % 2.54 mm
21:29 21.5 °C 20.7 °C 1009.7 hPa Calm     95 % 2.29 mm
21:34 21.4 °C 20.6 °C 1009.7 hPa Calm   3.7 km/h 95 % 2.29 mm
21:39 21.3 °C 20.5 °C 1009.7 hPa SW 1.1 km/h 3.7 km/h 95 % 2.03 mm
21:45 21.3 °C 20.4 °C 1010 hPa SW 1.3 km/h 3.7 km/h 95 % 1.78 mm
21:50 21.2 °C 20.3 °C 1010 hPa SSE 0.8 km/h 3.7 km/h 95 % 1.78 mm
21:55 21.1 °C 20.3 °C 1010 hPa South 1.6 km/h 5.6 km/h 95 % 1.52 mm
22:00 21.1 °C 20.2 °C 1010.4 hPa South 1.1 km/h 3.7 km/h 95 % 1.27 mm
22:05 21.1 °C 20.2 °C 1010.4 hPa SSE 0.8 km/h 1.9 km/h 95 % 1.27 mm
22:10 21 °C 20.2 °C 1010.4 hPa SW 2.6 km/h 6.4 km/h 95 % 1.27 mm
22:15 20.9 °C 20.1 °C 1010.4 hPa South 0.6 km/h 6.4 km/h 95 % 1.27 mm
22:20 20.9 °C 20.3 °C 1010.4 hPa SSE 1.3 km/h 5.6 km/h 96 % 1.02 mm
22:25 20.9 °C 20.2 °C 1010.4 hPa SSE 4 km/h 8 km/h 96 % 1.02 mm
22:30 20.8 °C 20.2 °C 1010.4 hPa SSE 0.2 km/h 1.9 km/h 96 % 0.76 mm
22:35 20.8 °C 20.2 °C 1010 hPa SSW 1.1 km/h 1.9 km/h 96 % 0.76 mm
22:40 20.8 °C 20.2 °C 1010 hPa ESE 0.3 km/h 3.7 km/h 96 % 0.76 mm
22:45 20.8 °C 20.2 °C 1010 hPa ESE 0.3 km/h 1.6 km/h 96 % 0.76 mm
22:50 20.8 °C 20.2 °C 1010.4 hPa ESE 0.2 km/h 3.7 km/h 96 % 0.51 mm
22:56 20.8 °C 20.2 °C 1010.4 hPa Calm   8 km/h 96 % 0 mm
23:01 20.8 °C 20.2 °C 1010.4 hPa SSW 1.9 km/h 5.6 km/h 96 % 0.51 mm
23:06 20.8 °C 20.1 °C 1010 hPa South 3.5 km/h 11.1 km/h 96 % 0.25 mm
23:11 20.8 °C 20.1 °C 1010.4 hPa SSE 0.6 km/h 5.6 km/h 96 % 0.25 mm
23:16 20.8 °C 20.1 °C 1010.4 hPa SSW 1.3 km/h 5.6 km/h 96 % 0 mm
23:21 20.8 °C 20.1 °C 1010.4 hPa Calm   3.7 km/h 96 % 0 mm
23:26 20.8 °C 20.1 °C 1010.4 hPa WSW 0.3 km/h 1.9 km/h 96 % 0 mm
23:31 20.7 °C 20.1 °C 1010.4 hPa South 0.5 km/h 5.6 km/h 96 % 0 mm
23:36 20.7 °C 20.1 °C 1010.4 hPa SSW 0.5 km/h 5.6 km/h 96 % 0 mm
23:41 20.7 °C 20.1 °C 1010.4 hPa SE 1.8 km/h 3.2 km/h 96 % 0 mm
23:46 20.7 °C 20.1 °C 1010.4 hPa Calm   3.7 km/h 96 % 0 mm
23:51 20.7 °C 20.1 °C 1010.4 hPa SSW 1.1 km/h 5.6 km/h 96 % 0 mm
23:56 20.7 °C 20.1 °C 1010.4 hPa SE 0.8 km/h 5.6 km/h 96 % 0 mm
Crab Meadow Weather
Compliments of Weather Underground - 3 mb

Script developed by  Jim McMurry - jmcmurry@mwt.net Adapted for the template by  Wim van der Kuil - Leuven-Template.eu

Weather Terms: Downburst - A strong downdraft from a thunderstorm resulting in an outward burst of damaging winds on or near the ground. Downburst winds are often 50 to 100 mph and in a few cases, 100 to 150 mph. They can do as much damage as a small tornado.